Lid_Strength_Index
3 2 2 3 3 2 2 2 3 3 3 3 2 2 3 3 2 2 2 2 2 3 2 1 3 3 5 9 9 3 0 -0 2 5 7 8 9 9 11 10 9 11 10 9 9 10 10
2 3 3 3 2 2 2 2 2 2 3 3 2 2 2 2 2 2 2 2 2 2 2 1 2 3 8 13 6 4 3 4 5 6 7 7 9 8 10 10 10 10 9 9 9 9 10
1 1 2 2 2 2 2 2 2 2 2 2 3 2 2 2 2 2 2 2 2 2 2 1 2 4 8 9 6 4 5 6 6 6 7 6 6 8 9 11 9 10 12 11 10 10 10
2 2 1 1 2 3 3 2 3 2 2 2 2 2 2 3 3 2 2 2 2 2 2 0 1 4 9 5 5 5 5 7 6 6 7 6 6 7 9 8 10 12 12 14 11 10 10
2 2 2 2 2 2 2 3 2 3 3 2 2 2 3 2 2 2 2 2 2 2 2 0 3 6 9 4 7 6 6 8 7 6 6 6 6 9 9 11 13 12 15 13 12 11 11
2 2 2 2 3 3 3 2 3 2 3 2 2 2 2 3 2 2 2 2 2 2 1 2 5 8 5 6 5 5 4 6 9 8 8 8 9 12 11 13 16 14 14 13 13 12 12
3 3 3 3 2 3 3 3 3 3 3 3 3 2 2 2 3 2 3 3 6 6 4 7 7 6 7 5 4 5 5 7 8 10 13 10 13 14 12 11 11 13 13 14 12 12 13
4 4 3 3 3 3 3 3 3 4 4 4 4 4 3 3 2 2 3 7 6 6 9 5 5 5 4 6 8 7 4 9 9 12 11 13 15 12 10 11 12 13 14 14 13 12 13
5 5 5 4 4 3 3 3 3 3 4 4 4 4 4 4 3 3 5 5 3 4 10 9 6 6 5 4 8 7 6 8 10 12 12 14 13 11 12 13 14 13 15 14 14 13 12
5 5 5 5 5 4 4 3 4 4 4 4 4 4 4 4 6 6 7 4 3 3 13 13 10 8 6 5 8 5 5 7 9 11 11 12 10 13 13 14 14 16 13 13 13 14 16
6 6 5 5 5 5 4 3 4 4 4 4 4 4 3 3 6 7 5 4 3 5 20 12 11 5 6 8 7 6 5 7 10 11 11 12 12 12 14 14 13 15 13 13 13 14 14
5 5 5 5 4 4 4 4 3 3 4 4 4 4 3 4 5 5 3 2 4 14 22 13 10 11 10 9 9 7 7 6 7 9 10 10 10 10 11 11 11 12 14 14 14 14 17
3 3 3 2 3 2 2 3 2 2 3 3 3 3 4 3 7 3 2 5 13 17 13 14 13 11 11 11 10 10 10 11 12 14 14 12 12 11 10 12 11 12 14 17 18 18 18
-0 0 1 0 0 0 0 0 1 0 1 2 2 2 3 3 2 2 3 9 17 17 16 12 11 11 13 10 10 10 10 12 10 10 12 15 16 12 11 11 13 14 13 16 20 20 18
-1 -1 -1 -1 -2 -0 -1 -1 -1 -2 -1 -1 -0 1 3 2 1 3 7 14 14 16 14 13 11 14 14 11 11 11 11 11 10 9 15 15 14 9 10 10 10 13 14 12 16 19 18
-2 -2 -2 -2 -2 -2 -2 -1 -2 -1 -2 -2 1 3 3 1 1 5 10 13 11 11 11 11 13 12 15 14 13 12 12 11 10 8 7 10 16 11 10 9 10 11 11 16 15 18 20
-2 -2 -2 -2 -2 -2 -1 -1 -2 -2 -2 -2 2 6 2 -1 1 7 13 12 10 9 9 10 11 12 12 12 11 12 12 11 8 8 7 9 12 14 11 13 13 12 13 13 12 13 17
-2 -2 -2 -2 -2 -2 -1 -1 -2 -2 -1 -0 4 10 1 0 9 9 11 11 9 9 7 8 8 10 11 10 11 12 12 11 8 7 11 9 11 15 14 9 9 10 12 12 14 16 13
-2 -2 -1 -2 -2 -2 -2 -1 -1 -2 -1 2 7 7 1 2 12 11 9 9 9 9 8 9 10 9 8 10 12 10 10 7 6 7 10 9 14 17 16 12 10 13 11 10 11 11 15
-2 -2 -2 -1 -1 -1 -1 -1 -1 -1 -1 1 6 10 7 6 6 9 11 10 11 7 9 7 9 8 9 10 8 10 10 7 6 7 7 7 12 14 16 14 12 15 13 11 11 14 14
-1 -1 -1 -1 -1 -1 -1 -1 -1 -1 -1 2 6 8 7 11 10 9 8 9 11 12 8 8 10 9 11 13 12 11 9 8 7 7 8 9 15 13 12 10 10 11 12 12 13 12 14
-1 -1 -1 -1 -1 -1 -1 -1 -1 -1 -1 3 7 8 7 8 7 9 9 10 11 10 9 10 11 10 9 12 11 12 9 9 10 8 9 9 15 13 14 12 12 13 11 12 12 12 12
-1 -1 -1 -1 -1 -1 -1 -1 -1 -1 -1 5 4 3 6 8 9 10 10 9 9 8 8 7 8 9 10 9 7 7 6 6 7 9 11 11 14 15 17 13 13 17 13 12 12 11 10
-1 -1 -1 -1 -1 -1 -1 -1 -1 -1 -0 2 3 4 8 10 9 10 9 8 8 8 9 7 7 9 7 4 5 6 7 8 8 9 9 12 13 14 16 14 21 12 8 8 10 10 9
-1 -1 -1 -1 -1 -1 -1 -1 -1 -1 -1 1 2 4 7 10 8 8 8 8 7 7 8 7 6 5 5 6 11 13 12 12 11 10 10 9 12 16 17 17 14 12 10 10 11 11 9
-1 -1 -1 -1 -1 -0 -1 -1 -1 -1 -1 1 1 1 5 9 9 7 8 8 10 9 9 8 5 4 5 9 12 16 17 14 15 13 9 10 10 14 16 18 20 11 8 7 7 14 7
-1 -1 -1 -1 -1 -1 -1 -1 -1 -1 -1 1 2 0 4 8 6 6 9 9 7 8 9 8 7 8 6 11 14 15 15 11 16 15 14 14 14 16 16 17 15 9 7 6 15 13 7
-1 -1 -1 -0 -0 -0 -0 -0 -0 -1 -1 0 2 0 3 6 5 5 5 7 7 8 11 8 9 9 10 13 13 13 14 13 13 12 13 15 15 16 15 17 19 7 8 11 8 6 6
-0 -0 -0 -0 -0 -0 -0 -0 -0 -0 -1 -0 4 0 0 5 5 3 3 2 3 4 6 7 8 8 8 10 11 10 13 12 13 16 10 15 12 14 13 13 10 8 8 7 5 6 6